Showing default

COSMOS 2530, 43751

Orbit data source: Space-Track

COSMOS 2530, 43751 is a payload satellite owned by VVKO VKS (CIS) in LEO that was launched on Fri, 30 Nov 2018 UTC via an ROKOT launch vehicle from the Plesetsk Missile And Space Complex (PKMTR). Payloads include a variety of satellites, spacecraft, and rockets equipped with specific instruments for various scientific and technological missions. These include communications satellites like Starlink; space stations such as the ISS; scientific satellites like the Hubble; Earth observation satellites from companies like Planet Labs, Umbra, and HawkEye 360; GPS; miniature CubeSats for education and research; and military/defense satellites.

Loading next visibility...
COSMOS 2530 details
Identifier
43751, 2018-097A
Orbit
LEO
Last TLE update9 hours ago
Origin
Flag of CISVVKO VKS (CIS)
ManufacturerResehetnev ISS
MissionOperational Defense Communications
Bus & MotorSTRELA-3M, Unknown motor
Mass280 kg wet, 280 kg dry
Launch date (UTC)
2018-11-30 (6 years ago)
Launch vehicle
ROKOT
Launch site
Plesetsk Missile And Space Complex (PKMTR)
Object type
Payload
Rocket body
Debris
Shape & HBRCyl + 1 Ant, 7 m
Radar Cross Section1.583 m², Large (>1 m²)

Expand to show TLE details & history

TLE from 9 hours ago
0 COSMOS 2530
1 43751U 18097A   24361.08642114  .00000055  00000-0  32077-3 0  9999
2 43751  82.5133 196.2718 0019958 128.3055 231.9823 12.42894808275530
Epoch: 2024-12-26T02:04Z
Definitive object data (Epoch: 2024-12-26T02:04:26.786Z)
Latitude-0.00003°
Longitude70.08932°
Altitude1,506.754 km
Speed7.107 km/s
True Right ascension13h 05m 05s
True Declination0° 00' 00"
Sunlit
Object was in daylight at TLE epoch
Visualization TLE readout
Latitude-37.95982°
Longitude-104.28494°
Altitude1,508.783 km
Speed7.11 km/s
Apparent Right ascension00h 05m 23s
Apparent Declination-41° 04' 21"
Sunlit
Object is in daylight
Visualization observer readout
Local Sidereal Time10:19:26
Azimuth258.083° W
Elevation-69.9°
Doppler factor1
Orbital elements
Apogee altitude1,507.413 km
Perigee altitude1,476 km
Semi-major axis7,869.843 km
Eccentricity0.0019958
Inclination82.5133°
RAAN196.2718°
Arg. of periapsis128.3055°
True anomaly231.8024°
Mean anomaly231.9823°
Eccentric anomaly231.89232°
Mean motion3.10881 °/min
BSTAR0.00032077
Orbital period115.8 mins
Loading maneuver chart data...
Loading historical data...
Loading historical data...
Loading historical data...
Loading historical data...
Loading historical data...
Loading historical data...
Loading historical data...
Other satellites on launch #97 in the year 2018 (2018-11-30 UTC)

COSMOS 2530 Visibility forecast

Observer location: undefined°, undefined

Span
Click to sort rows by Start time (UTC) header in descending order
Start Az.
Max El. time (UTC)
Max El. Az.
Max El.
End time (UTC)
End Az.
5 mins2024-12-26 11:55:09.997Z92.19° ESE2024-12-26 11:57:09.997Z78.036° E12.616°2024-12-26 12:00:09.997Z56.619° ENE
16 mins2024-12-26 13:45:09.997Z176.623° S2024-12-26 13:53:09.997Z72.932° E43.971°2024-12-26 14:01:09.997Z11.174° NNE
11 mins2024-12-26 15:45:09.997Z251.278° W2024-12-26 15:50:09.997Z290.779° WNW21.196°2024-12-26 15:56:09.997Z338.838° N
14 mins2024-12-26 23:57:09.997Z13.732° NNE2024-12-27 00:03:09.997Z68.049° E30.21°2024-12-27 00:11:09.997Z135.664° SSE
14 mins2024-12-27 01:54:09.997Z336.428° NNW2024-12-27 02:00:09.997Z276.184° WNW36.839°2024-12-27 02:08:09.997Z201.384° SSW
|